Radiation Dose at Monitoring Post of Fukushima Daini Nuclear Power Station
Date,Time,MP-1(microSv/h),MP-2(microSv/h),MP-3(microSv/h),MP-4(microSv/h),MP-5(microSv/h),MP-6(microSv/h),MP-7(microSv/h),Wind Direction,Wind Velocity(m/s),Rain
2013/07/16,00:00,0.9,0.6,0.9,0.8,0.8,0.4,0.3,north,5.4,No
2013/07/16,00:10,0.9,0.6,0.9,0.8,0.8,0.4,0.3,north,5.0,No
2013/07/16,00:20,0.9,0.6,0.9,0.8,0.8,0.4,0.3,north,4.1,No
2013/07/16,00:30,0.9,0.6,0.9,0.8,0.8,0.4,0.3,north-northwest,5.5,No
2013/07/16,00:40,0.9,0.6,0.9,0.8,0.8,0.4,0.3,north,7.1,No
2013/07/16,00:50,0.9,0.6,0.9,0.8,0.8,0.4,0.3,north,6.2,No
2013/07/16,01:00,0.9,0.6,0.9,0.8,0.8,0.4,0.3,north,5.2,No
2013/07/16,01:10,0.9,0.6,0.9,0.8,0.8,0.4,0.3,north,5.3,No
2013/07/16,01:20,0.9,0.6,0.9,0.8,0.8,0.4,0.3,north,5.6,No
2013/07/16,01:30,0.9,0.6,0.9,0.8,0.8,0.4,0.3,north,6.3,No
2013/07/16,01:40,0.9,0.6,0.9,0.8,0.8,0.4,0.3,north,6.3,No
2013/07/16,01:50,0.9,0.6,0.9,0.8,0.8,0.4,0.3,north,6.1,No
2013/07/16,02:00,0.9,0.6,0.9,0.8,0.8,0.4,0.3,north,4.7,No
2013/07/16,02:10,0.9,0.6,0.9,0.8,0.8,0.4,0.3,north,5.0,No
2013/07/16,02:20,0.9,0.6,0.9,0.8,0.8,0.4,0.3,north,4.7,No
2013/07/16,02:30,0.9,0.6,0.9,0.8,0.8,0.4,0.3,north,3.5,No
2013/07/16,02:40,0.9,0.6,0.9,0.8,0.8,0.4,0.3,north,3.1,No
2013/07/16,02:50,0.9,0.6,0.9,0.8,0.8,0.4,0.3,north-northwest,3.3,No
2013/07/16,03:00,0.9,0.6,0.9,0.8,0.8,0.4,0.3,north,3.4,No
2013/07/16,03:10,0.9,0.6,0.9,0.8,0.8,0.4,0.3,north,2.4,No
2013/07/16,03:20,0.9,0.6,0.9,0.8,0.8,0.4,0.3,north,3.1,No
2013/07/16,03:30,0.9,0.6,0.9,0.8,0.8,0.4,0.3,north,3.4,No
2013/07/16,03:40,0.9,0.6,0.9,0.8,0.8,0.4,0.3,north,3.2,No
2013/07/16,03:50,0.9,0.6,0.9,0.8,0.8,0.4,0.3,north-northwest,2.2,No
2013/07/16,04:00,0.9,0.6,0.9,0.8,0.8,0.4,0.3,north,2.7,No
2013/07/16,04:10,0.9,0.6,0.9,0.8,0.8,0.4,0.3,north,2.6,No
2013/07/16,04:20,0.9,0.6,0.9,0.8,0.8,0.4,0.3,north-northwest,1.5,No
2013/07/16,04:30,0.9,0.6,0.9,0.8,0.8,0.4,0.3,north,1.7,No
2013/07/16,04:40,0.9,0.6,0.9,0.8,0.8,0.4,0.3,northwest,1.4,No
2013/07/16,04:50,0.9,0.6,0.9,0.8,0.8,0.4,0.3,northwest,1.7,No
2013/07/16,05:00,0.9,0.6,0.9,0.8,0.8,0.4,0.3,northwest,2.4,No
2013/07/16,05:10,0.9,0.6,0.9,0.8,0.8,0.4,0.3,northwest,1.4,No
2013/07/16,05:20,0.9,0.6,0.9,0.8,0.8,0.4,0.3,north-northwest,1.7,No
2013/07/16,05:30,0.9,0.6,0.9,0.8,0.8,0.4,0.3,north-northwest,1.3,No
2013/07/16,05:40,0.9,0.6,0.9,0.8,0.8,0.4,0.3,north,1.3,No
2013/07/16,05:50,0.9,0.6,0.9,0.8,0.8,0.4,0.3,north-northwest,0.6,Yes
2013/07/16,06:00,0.9,0.6,0.9,0.8,0.8,0.4,0.3,north,0.9,No
2013/07/16,06:10,0.9,0.6,0.9,0.8,0.8,0.4,0.3,north-northwest,1.7,No
2013/07/16,06:20,0.9,0.6,0.9,0.8,0.8,0.4,0.3,north,1.8,No
2013/07/16,06:30,0.9,0.6,0.9,0.8,0.8,0.4,0.3,north-northwest,1.9,No
2013/07/16,06:40,0.9,0.6,0.9,0.8,0.8,0.4,0.3,north-northwest,1.3,No
2013/07/16,06:50,0.9,0.6,0.9,0.8,0.8,0.4,0.3,north-northwest,1.6,No
2013/07/16,07:00,0.9,0.6,0.9,0.8,0.8,0.4,0.3,north,0.8,No
2013/07/16,07:10,0.9,0.6,0.9,0.8,0.8,0.4,0.3,north,1.4,No
2013/07/16,07:20,0.9,0.6,0.9,0.8,0.8,0.4,0.3,north,1.6,No
2013/07/16,07:30,0.9,0.6,0.9,0.8,0.8,0.4,0.3,north,1.9,No
2013/07/16,07:40,0.9,0.6,0.9,0.8,0.8,0.4,0.3,north-northeast,2.1,No
2013/07/16,07:50,0.9,0.6,0.9,0.8,0.8,0.4,0.3,north-northeast,2.4,No
2013/07/16,08:00,0.9,0.6,0.9,0.8,0.8,0.4,0.3,northeast,2.8,No
2013/07/16,08:10,0.9,0.6,0.9,0.9,0.8,0.4,0.3,northeast,2.8,No
2013/07/16,08:20,0.9,0.6,0.9,0.9,0.8,0.4,0.3,northeast,2.5,No
2013/07/16,08:30,0.9,0.6,0.9,0.9,0.8,0.4,0.3,northeast,3.8,No
2013/07/16,08:40,0.9,0.6,0.9,0.9,0.8,0.4,0.3,northeast,4.9,No
2013/07/16,08:50,0.9,0.6,0.9,0.9,0.8,0.4,0.3,northeast,5.6,No
2013/07/16,09:00,0.9,0.6,0.9,0.9,0.8,0.4,0.3,northeast,4.5,No
2013/07/16,09:10,0.9,0.6,0.9,0.9,0.8,0.4,0.3,northeast,4.4,No
2013/07/16,09:20,0.9,0.6,0.9,0.9,0.8,0.4,0.3,east-northeast,2.7,No
2013/07/16,09:30,0.9,0.6,0.9,0.9,0.8,0.4,0.3,northeast,1.0,No
2013/07/16,09:40,0.9,0.6,0.9,0.9,0.8,0.4,0.3,north-northeast,3.2,No
2013/07/16,09:50,0.9,0.6,0.9,0.9,0.8,0.4,0.3,north-northeast,3.3,No
2013/07/16,10:00,0.9,0.6,0.9,0.9,0.8,0.4,0.3,north-northeast,4.0,No
2013/07/16,10:10,0.9,0.6,0.9,0.9,0.8,0.4,0.3,northeast,2.8,No
2013/07/16,10:20,0.9,0.6,0.9,0.9,0.8,0.4,0.3,northeast,2.4,No
2013/07/16,10:30,0.9,0.6,0.9,0.9,0.8,0.4,0.3,northeast,2.8,No
2013/07/16,10:40,0.9,0.6,0.9,0.9,0.8,0.4,0.3,northeast,3.0,No
2013/07/16,10:50,0.9,0.6,0.9,0.9,0.8,0.4,0.3,northeast,2.4,No
2013/07/16,11:00,0.9,0.6,0.9,0.9,0.8,0.4,0.3,northeast,2.2,No
2013/07/16,11:10,0.9,0.6,0.9,0.9,0.8,0.4,0.3,east-northeast,3.2,No
2013/07/16,11:20,0.9,0.6,0.9,0.9,0.8,0.4,0.3,east-northeast,1.3,No
2013/07/16,11:30,0.9,0.6,0.9,0.9,0.8,0.4,0.3,northeast,1.7,No
2013/07/16,11:40,0.9,0.6,0.9,0.9,0.8,0.4,0.3,north-northeast,1.5,No
2013/07/16,11:50,0.9,0.6,0.9,0.9,0.8,0.4,0.3,east-northeast,1.9,No
2013/07/16,12:00,0.9,0.6,0.9,0.9,0.8,0.4,0.3,east-northeast,1.9,No
2013/07/16,12:10,0.9,0.6,0.9,0.9,0.8,0.4,0.3,east-northeast,2.1,No
2013/07/16,12:20,0.9,0.6,0.9,0.9,0.8,0.4,0.3,east-northeast,1.3,No
2013/07/16,12:30,0.9,0.6,0.9,0.9,0.8,0.4,0.3,northeast,2.8,No
2013/07/16,12:40,0.9,0.6,0.9,0.9,0.8,0.4,0.3,northeast,2.3,No
2013/07/16,12:50,0.9,0.6,0.9,0.9,0.8,0.4,0.3,northeast,2.6,No
2013/07/16,13:00,0.9,0.6,0.9,0.9,0.8,0.4,0.3,east-northeast,2.3,No
2013/07/16,13:10,0.9,0.6,0.9,0.9,0.8,0.4,0.3,northeast,2.1,No
2013/07/16,13:20,0.9,0.6,0.9,0.9,0.8,0.4,0.3,east-northeast,2.8,No
2013/07/16,13:30,0.9,0.6,0.9,0.9,0.8,0.4,0.3,east-northeast,2.6,No
2013/07/16,13:40,0.9,0.6,0.9,0.9,0.8,0.4,0.3,east-northeast,2.4,No
2013/07/16,13:50,0.9,0.6,0.9,0.9,0.8,0.4,0.3,east-northeast,2.4,No
2013/07/16,14:00,0.9,0.6,0.9,0.9,0.8,0.4,0.3,northeast,2.4,No
2013/07/16,14:10,0.9,0.6,0.9,0.9,0.8,0.4,0.3,east-northeast,2.2,No
2013/07/16,14:20,0.9,0.6,0.9,0.9,0.8,0.4,0.3,north,2.9,No
2013/07/16,14:30,0.9,0.6,0.9,0.9,0.8,0.4,0.3,north-northeast,3.0,No
2013/07/16,14:40,0.9,0.6,0.9,0.9,0.8,0.4,0.3,north-northeast,2.9,No
2013/07/16,14:50,0.9,0.6,0.9,0.9,0.8,0.4,0.3,north-northeast,3.4,No
2013/07/16,15:00,0.9,0.6,0.9,0.9,0.8,0.4,0.3,north-northeast,3.4,No
2013/07/16,15:10,0.9,0.6,0.9,0.9,0.8,0.4,0.3,north-northeast,4.2,No
2013/07/16,15:20,0.9,0.6,0.9,0.9,0.8,0.4,0.3,north-northeast,2.8,No
2013/07/16,15:30,0.9,0.6,0.9,0.9,0.8,0.4,0.3,north-northeast,3.0,No
2013/07/16,15:40,0.9,0.6,0.9,0.9,0.8,0.4,0.3,north-northeast,3.4,No
2013/07/16,15:50,0.9,0.6,0.9,0.9,0.8,0.4,0.3,north,3.6,No
2013/07/16,16:00,0.9,0.6,0.9,0.9,0.8,0.4,0.3,north-northeast,4.1,No
2013/07/16,16:10,0.9,0.6,0.9,0.9,0.8,0.4,0.3,north-northeast,3.6,No
2013/07/16,16:20,0.9,0.6,0.9,0.9,0.8,0.4,0.3,north-northeast,2.5,No
2013/07/16,16:30,0.9,0.6,0.9,0.9,0.8,0.4,0.3,north-northeast,2.8,No
2013/07/16,16:40,0.9,0.6,0.9,0.9,0.8,0.4,0.3,north-northeast,3.2,No
2013/07/16,16:50,0.9,0.6,0.9,0.9,0.8,0.4,0.3,north-northeast,2.8,No
2013/07/16,17:00,0.9,0.6,0.9,0.9,0.8,0.4,0.3,northeast,3.3,No
2013/07/16,17:10,0.9,0.6,0.9,0.9,0.8,0.4,0.3,northeast,3.3,No
2013/07/16,17:20,0.9,0.6,0.9,0.9,0.8,0.4,0.3,northeast,3.2,No
2013/07/16,17:30,0.9,0.6,0.9,0.9,0.8,0.4,0.3,north-northeast,3.0,No
2013/07/16,17:40,0.9,0.6,0.9,0.9,0.8,0.4,0.3,northeast,3.3,No
2013/07/16,17:50,0.9,0.6,0.9,0.9,0.8,0.4,0.3,north-northeast,3.4,No
2013/07/16,18:00,0.9,0.6,0.9,0.9,0.8,0.4,0.3,north-northeast,3.3,No
2013/07/16,18:10,0.9,0.6,0.9,0.8,0.8,0.4,0.3,north-northeast,3.0,No
2013/07/16,18:20,0.9,0.6,0.9,0.8,0.8,0.4,0.3,north-northeast,3.9,No
2013/07/16,18:30,0.9,0.6,0.9,0.8,0.8,0.4,0.3,north-northeast,3.3,No
2013/07/16,18:40,0.9,0.6,0.9,0.8,0.8,0.4,0.3,north-northeast,4.0,No
2013/07/16,18:50,0.9,0.6,0.9,0.8,0.8,0.4,0.3,north,3.9,No
2013/07/16,19:00,0.9,0.6,0.9,0.8,0.8,0.4,0.3,north,2.5,No
2013/07/16,19:10,0.9,0.6,0.9,0.8,0.8,0.4,0.3,north,2.8,No
2013/07/16,19:20,0.9,0.6,0.9,0.8,0.8,0.4,0.3,north,2.8,No
2013/07/16,19:30,0.9,0.6,0.9,0.8,0.8,0.4,0.3,north,2.2,No
2013/07/16,19:40,0.9,0.6,0.9,0.8,0.8,0.4,0.3,north,2.3,No
2013/07/16,19:50,0.9,0.6,0.9,0.8,0.8,0.4,0.3,north,2.1,No
2013/07/16,20:00,0.9,0.6,0.9,0.8,0.8,0.4,0.3,north,2.3,No
2013/07/16,20:10,0.9,0.6,0.9,0.8,0.8,0.4,0.3,north,1.9,No
2013/07/16,20:20,0.9,0.6,0.9,0.8,0.8,0.4,0.3,north,3.0,No
2013/07/16,20:30,0.9,0.6,0.9,0.8,0.8,0.4,0.3,north-northeast,3.0,No
2013/07/16,20:40,0.9,0.6,0.9,0.8,0.8,0.4,0.3,north,2.5,No
2013/07/16,20:50,0.9,0.6,0.9,0.8,0.8,0.4,0.3,north-northwest,2.0,No
2013/07/16,21:00,0.9,0.6,0.9,0.8,0.8,0.4,0.3,north-northwest,2.2,No
2013/07/16,21:10,0.9,0.6,0.9,0.8,0.8,0.4,0.3,north-northwest,2.8,No
2013/07/16,21:20,0.9,0.6,0.9,0.8,0.8,0.4,0.3,north-northwest,2.5,No
2013/07/16,21:30,0.9,0.6,0.9,0.8,0.8,0.4,0.3,northwest,2.5,No
2013/07/16,21:40,0.9,0.6,0.9,0.8,0.8,0.4,0.3,north-northwest,3.1,No
2013/07/16,21:50,0.9,0.6,0.9,0.8,0.8,0.4,0.3,north-northwest,3.1,No
2013/07/16,22:00,0.9,0.6,0.9,0.8,0.8,0.4,0.3,north-northwest,2.2,No
2013/07/16,22:10,0.9,0.6,0.9,0.8,0.8,0.4,0.3,north,2.2,No
2013/07/16,22:20,0.9,0.6,0.9,0.8,0.8,0.4,0.3,north,1.9,No
2013/07/16,22:30,0.9,0.6,0.9,0.8,0.8,0.4,0.3,north,1.9,No
2013/07/16,22:40,0.9,0.6,0.9,0.8,0.8,0.4,0.3,north,1.4,No
2013/07/16,22:50,0.9,0.6,0.9,0.8,0.8,0.4,0.3,north,2.1,No
2013/07/16,23:00,0.9,0.6,0.9,0.8,0.8,0.4,0.3,north-northeast,1.6,No
2013/07/16,23:10,0.9,0.6,0.9,0.8,0.8,0.4,0.3,north,2.2,No
2013/07/16,23:20,0.9,0.6,0.9,0.8,0.8,0.4,0.3,north,2.4,No
2013/07/16,23:30,0.9,0.6,0.9,0.8,0.8,0.4,0.3,north,2.2,No
2013/07/16,23:40,0.9,0.6,0.9,0.8,0.8,0.4,0.3,north,2.2,No
2013/07/16,23:50,0.9,0.6,0.9,0.8,0.8,0.4,0.3,north,2.7,No
